Regional Weather Roundup
Issued by NWS Newport/Morehead, NC

Current Version | Previous Version | Graphics & Text | Print | Product List | Glossary Off
Versions: 1 2 3 4 5 6 7 8 9 10 11 12 13 14 15 16 17 18 19 20 21 22 23 24 25 26 27 28 29 30 31 32 33 34 35 36 37 38 39 40 41 42 43 44 45 46 47 48 49 50

000
ASUS42 KMHX 170822
RWRMHX
WEATHER ROUNDUP FOR EASTERN NORTH CAROLINA
NATIONAL WEATHER SERVICE NEWPORT/MOREHEAD CITY NC
300 AM EST WED DEC 17 2014

NOTE: "FAIR" INDICATES FEW OR NO CLOUDS BELOW 12,000 FEET
WITH NO SIGNIFICANT WEATHER AND/OR OBSTRUCTIONS TO VISIBILITY

NCZ015>017-031-032-045>047-102-103-170900-
NORTH COAST

CITY           SKY/WX    TMP DP  RH WIND       PRES   REMARKS
EDENTON        CLEAR     46  44  95 NW6       29.96R FOG
ELIZABETH CITY CLOUDY    50  46  87 W7        29.95R FOG
KITTY HAWK     CLOUDY    49  48  97 NW6       29.92S FOG
MANTEO         CLOUDY    48  47  97 NW8       29.94S

$$

NCZ045>047-081-094-103-104-170900-
CENTRAL COAST

CITY           SKY/WX    TMP DP  RH WIND       PRES   REMARKS
FRISCO         CLEAR     49  49 100 NW8       29.94R
SWANQUARTER      N/A     48 N/A N/A W6        29.91S

$$

NCZ095-097-098-100-101-170900-
SOUTHERN COAST

CITY           SKY/WX    TMP DP  RH WIND       PRES   REMARKS
BEAUFORT       CLEAR     52  48  86 NW10      29.97S
CEDAR ISLAND     N/A     50 N/A N/A W7G13     30.00S
JACKSONVILLE   CLEAR     50  46  86 W7        29.99R
PINEY ISLAND   SUNNY     52  47  83 W9        29.97R
WILMINGTON     CLEAR     50  47  89 W6        30.01R


$$

NCZ011>013-027>030-043-044-078>080-089-090>093-098-170900-
COASTAL PLAIN

CITY           SKY/WX    TMP DP  RH WIND       PRES   REMARKS
AHOSKIE          N/A     41  40  98 CALM      29.97R FOG
CLINTON        CLEAR     44  44 100 CALM      30.01S FOG
ELIZABETHTOWN  CLEAR     48  48 100 W3        30.03R FOG
GOLDSBORO      CLEAR     43  43  99 CALM      29.98R
GREENVILLE     CLEAR     46  45  93 CALM      30.00S
HAVELOCK       CLEAR     52  46  80 NW9       29.99R
KENANSVILLE    CLEAR     45  43  93 W3        30.02R
KINSTON        CLEAR     45  44  97 W3        30.00R FOG
NEW BERN       CLEAR     52  45  77 W6        29.99R
RICHLANDS      CLEAR     48  43  81 W3        30.01R
ROCKY MOUNT    CLEAR     45  42  89 CALM      29.98S
WASHINGTON     CLEAR     45  44  95 CALM      29.98S
WHITEVILLE     CLEAR     47  43  88 CALM      30.03R

$$

AMZ130-135-150-152-154-156-158-170-250-252-270-ANZ085-086-088-633-658-670-170900-
MARINE OBSERVATIONS

STATION/POSITION TIME  TEMP    WIND        PRES    WAVE   SWELL
                       AIR SEA DIR/SP/G            HT/PER HT/PER
                 (UTC) (F)     (DEG/KT/KT) (MB)    (FT/S) (FT/S)
CHESAPEAKE LIGHT 0800   47     330/ 12/ 12 1013.4
64 E VA BEACH    0800   52 55  320/ 17/ 19 1011.8    4/ 4   2/ 9
DUCK             0800   49 48  310/ 12/ 15 1012.8
2 E DUCK         0800      48                N/A     2/10
10 NE DUCK       0800      50                N/A     3/ 3
OREGON INLET     0800   49 51  300/ 12/ 17 1013.3
13E OREGON INLT  0800      50                N/A     4/ 6
HATTERAS CG      0800   51 54  290/ 15/ 17 1014.1
DIAMOND BUOY     0800   57                 1013.1    7/ 7
17 S OCRACOKE    NOT AVBL
CAPE LOOKOUT     0800   54     310/ 11/ 15 1014.5
BEAUFORT LAB     0800   53 52  330/  6/ 10 1013.7
30 SE NEW RIVER  0800   58 60  310/ 16/ 19 1015.5    6/ 7   3/ 7
5 SE WRIGHTSVLE  0800   51 55  290/  8/ 10 1016.2
225 S CAPE HAT   0735   73 73  240/ 25/ 29 1015.1    7/ 6   2/11
41 SE CHARLESTON 0800   59 73  300/ 17/ 21 1017.5    5/ 6   2/11

$$


USA.gov is the U.S. government's official web portal to all federal, state and local government web resources and services.